Location: Unspecified
(0.0000°N, 0.0000°E)
Time: 17:10:18
(UTC+00:00)

ISS - Visible Passes

Search period start: 23 October 2014 00:00
Search period end: 02 November 2014 00:00
Orbit: 413 x 416 km, 51.6° (Epoch: 23 October)

Date Brightness Start Highest point End Pass type
(mag) Time Alt. Az. Time Alt. Az. Time Alt. Az.
30 Oct -2.7 19:05:08 10° NNW 19:07:36 47° NNW 19:07:36 47° NNW visible
31 Oct -2.3 18:16:12 10° N 18:19:05 27° NE 18:21:58 10° ESE visible
01 Nov -0.5 19:03:35 10° WNW 19:06:08 20° SW 19:08:42 10° S visible
